CRAIOVA current weather conditions

sailwx.info

Wind from 090 at 6 knots

Air temperature -0.0° C
Visibility: greater than 1.6 NM
Dewpoint -0.0° C
Present weather: Mist.

Last reported at 2019-Jan-23 01:00 UTC.
Time now 2019-Jan-23 02:02 UTC

Location: N 44°19' E 023°53'.
View on Google Maps.

See reports from other nearby stations

  
Tides and Currents Weather Stations Pressure Air Temp Water Temp Dewpoint Dewpoint Depression Visibility Wind Speed Wind Dir Waves Ship Positions
date/time (UTC)wind fromknots sea level pressurealtimeterstation pressurevisibilityair tempwater tempwave heightnotes
2019-Jan-23 01:00 090 6 1.6-0.0 Mist.
2019-Jan-23 00:30 070 6 1.6-0.0 Mist.
2019-Jan-23 00:00 070 7 1.3-0.0 Light drizzle snow. Mist.
2019-Jan-22 23:30 070 8 1.1-0.0 Light snow. Mist.
2019-Jan-22 23:00 070 9 0.8-1.0 Light snow. Mist.
2019-Jan-22 22:30 070 11 0.6-1.0 Light snow. Mist.
2019-Jan-22 22:00 060 9 1.1-1.0 Light snow. Mist.
2019-Jan-22 21:30 070 8 1.0-1.0 Light snow.
2019-Jan-22 21:00 060 9 2.5-1.0 Light snow.
2019-Jan-22 20:30 060 8 2.5-1.0 Light snow.
2019-Jan-22 20:00 070 7 2.5-1.0 Light snow.
2019-Jan-22 19:30 070 7 2.7-1.0 Mist.
2019-Jan-22 19:00 060 7 2.7-2.0 Mist.
2019-Jan-22 18:30 060 8 2.7-2.0
2019-Jan-22 18:00 050 7 2.7-2.0 Snow grains.
2019-Jan-22 17:30 060 6 2.4-2.0 Light snow.
2019-Jan-22 17:00 050 7 1.3-2.0 Light snow. Mist.
2019-Jan-22 16:30 060 8 1.1-2.0 Light snow. Mist.
2019-Jan-22 16:00 060 9 1.1-2.0 Light snow. Mist.
2019-Jan-22 15:30 060 11 1.7-2.0 Light snow. Mist.
2019-Jan-22 15:00 060 9 0.8-2.0 Snow. Mist.
2019-Jan-22 14:30 060 12 1.1-2.0 Light snow. Mist.
2019-Jan-22 14:00 060 12 1.1-2.0 Light snow. Mist.
2019-Jan-22 13:30 070 13 0.8-2.0 Light snow.
2019-Jan-22 13:00 070 12 1.2-2.0 Light snow. Mist.
2019-Jan-22 12:30 060 12 0.8-2.0 Light snow. Mist.
2019-Jan-22 12:00 060 12 0.9-2.0 Light snow. Mist.
2019-Jan-22 11:30 060 13 1.4-2.0 Light snow. Mist.
2019-Jan-22 11:00 060 12 1.8-2.0 Light snow. Mist.
2019-Jan-22 10:30 060 13 0.8-2.0 Light snow. Mist.
2019-Jan-22 10:00 060 13 2.7-2.0 Light snow. Mist.
2019-Jan-22 09:30 060 13 1.5-3.0 Light snow.
2019-Jan-22 09:00 060 13 1.2-2.0 Light snow.
2019-Jan-22 08:30 060 12 0.8-2.0 Light snow.
2019-Jan-22 08:00 070 13 1.0-3.0 Light snow.
2019-Jan-22 07:30 070 13 0.9-3.0 Light snow.
2019-Jan-22 07:00 060 11 0.5-3.0 Light snow. Mist.
2019-Jan-22 06:30 060 12 1.1-2.0 Light snow. Mist.
2019-Jan-22 06:00 070 13 1.1-2.0 Light snow. Mist.
2019-Jan-22 05:30 070 14 2.7-2.0 Light snow.
2019-Jan-22 05:00 070 13 5.4-2.0
2019-Jan-22 04:30 070 14 4.9-2.0
2019-Jan-22 04:00 080 15 5.4-2.0
2019-Jan-22 03:30 070 14 5.4-2.0
2019-Jan-22 03:00 080 14 5.4-2.0
2019-Jan-22 02:30 080 14 5.4-1.0
2019-Jan-22 02:00 080 13 5.4-1.0
2019-Jan-22 01:30 090 13 5.4-1.0
2019-Jan-22 01:00 090 12 4.3-1.0
2019-Jan-22 00:30 080 13 4.3-1.0
2019-Jan-22 00:00 090 13 4.3-1.0
2019-Jan-21 23:30 090 11 4.3-1.0
2019-Jan-21 23:00 090 11 4.3-1.0
2019-Jan-21 22:30 080 8 3.2-0.0
2019-Jan-21 22:00 090 8 3.2-0.0
2019-Jan-21 21:30 090 7 3.2-0.0
2019-Jan-21 21:00 090 7 2.7-0.0 Mist.
2019-Jan-21 20:30 080 8 2.2-0.0 Mist.
2019-Jan-21 20:00 070 6 2.2-0.0 Mist.
2019-Jan-21 19:30 080 6 2.7-0.0 Mist.
2019-Jan-21 19:00 090 7 2.7-0.0 Mist.
2019-Jan-21 18:30 080 6 2.7-0.0 Mist.
2019-Jan-21 18:00 070 6 3.2-0.0
2019-Jan-21 17:30 070 6 3.2-0.0
2019-Jan-21 17:00 070 7 2.4-0.0 Mist.
2019-Jan-21 16:30 070 6 2.2-0.0 Mist.
2019-Jan-21 16:00 080 6 1.9-0.0 Mist.
2019-Jan-21 15:30 070 7 1.9-0.0 Mist.
2019-Jan-21 15:00 060 8 2.2-0.0 Mist.
2019-Jan-21 14:30 070 8 2.7-0.0 Mist.
2019-Jan-21 14:00 070 9 2.7-0.0 Mist.
2019-Jan-21 13:30 070 9 2.7 1.0 Mist.
2019-Jan-21 13:00 060 6 5.4 2.0
2019-Jan-21 12:30 010 2 5.4 3.0
2019-Jan-21 12:00 350 5 5.4 4.0
2019-Jan-21 11:30 290 5 5.4 3.0
2019-Jan-21 11:00 290 5 5.4 3.0
2019-Jan-21 10:30 270 6 5.4 2.0
2019-Jan-21 10:00 280 6 5.4 2.0
2019-Jan-21 09:30 280 7 5.4 1.0
2019-Jan-21 09:00 270 7 5.4-0.0
2019-Jan-21 08:30 270 7 3.2-0.0
2019-Jan-21 08:00 280 6 4.3-1.0
2019-Jan-21 07:30 270 6 4.3-1.0
2019-Jan-21 07:00 340 2 4.3-3.0
2019-Jan-21 06:30 360 2 2.7-4.0 Mist.
2019-Jan-21 06:00 280 5 3.2-3.0
2019-Jan-21 05:30 240 6 4.3-3.0
2019-Jan-21 05:00 250 6 3.8-3.0
2019-Jan-21 04:30 250 6 4.3-2.0
2019-Jan-21 04:00 250 6 4.3-2.0
2019-Jan-21 03:30 250 6 3.8-2.0
2019-Jan-21 03:00 250 7 3.2-2.0
2019-Jan-21 02:30 260 6 3.2-2.0
2019-Jan-21 02:00 270 6 3.2-2.0